Voltar ao catálogo

CRRES

AtivoCiênciaHEO
NORAD 20712·PAYLOAD·🇺🇸 United States

Lançado Jul 25, 1990 de Cape Canaveral Space Force Station

Loading…

Próximas Passagens (próximas 24 horas)

TLE

AtualizadoSource: Space-Track

Época: Sep 14, 2026, 03:06 UTC

1 20712U 90065A   26257.12981386  .00000347  00000-0  48727-3 0  9997
2 20712  17.8825 262.3382 7074968 357.3108   0.3048  2.50161615311938

Acompanhe CRRES em tempo real com AllMySat

Download on the App Store